Powrót do katalogu

SL-16 DEB

AktywnyLEO
NORAD 22352·DEBRIS·🇷🇺 Russia

Wystrzelony Dec 25, 1992 z Baikonur Cosmodrome

Loading…

Następne Przeloty (najbliższe 24 godziny)

TLE

ŚwieżeSource: Space-Track

Epoka: Sep 14, 2026, 10:41 UTC

1 22352U 92093AR  26257.44571612 -.00000056  00000-0 -56806-5 0  9992
2 22352  70.8912  51.8363 0076171   1.3723  18.2634 14.00740556721340

Śledź SL-16 DEB w czasie rzeczywistym z AllMySat

Download on the App Store